Home > Weather > Middlesbrough > Past weeks

Flag for United Kingdom Weather for the Past 2 Weeks in Middlesbrough, England, United Kingdom

Now
32 °F

Ice fog.


Feels Like: 32 °F
Forecast: 34 / 44 °F
Wind: 2 mph from North

Location: Leeming

Current Time: Feb 12, 2016 at 6:20:53 AM

Latest Report: Feb 12, 2016 at 4:50 AM


Visibility: 4 mi

Pressure: 29.45 "Hg

Humidity: 93%

Dew point: 30 °F

Location of MiddlesbroughLocation

Historic Weather in Middlesbrough — Graph

°F

Middlesbrough Temperature Yesterday

Maximum temperature yesterday: 45 °F (at 1:50 PM)
Minimum temperature yesterday: 30 °F (at 6:50 AM)
Average temperature yesterday: 35 °F

High & Low Weather Summary for the Past Weeks

 TemperatureHumidityPressure
High55 °F (Feb 1, 9:50 AM)100% (Jan 31, 5:50 PM)30.21 "Hg (Jan 31, 5:50 PM)
Low28 °F (Feb 12, 12:50 AM)47% (Jan 29, 11:50 AM)28.62 "Hg (Feb 8, 9:50 AM)
Average43 °F78%29.51 "Hg
* Reported Jan 28 4:50 AM — Feb 12 4:50 AM, Middlesbrough, Weather by CustomWeather, © 2016

Note: Actual official high and low records may vary slightly from our data, if they occured in-between our weather recording intervals... More about our weather records

Advertising

Middlesbrough Weather History for the Previous 24 Hours

 ConditionsComfort  
Time TempWeatherWind HumidityBarometerVisibility
4:50 AM
Fri, Feb 12
32 °FIce fog.2 mph93%29.45 "Hg4 mi
3:50 AM32 °FIce fog.1 mph93%29.45 "Hg3 mi
2:50 AM30 °FIce fog.1 mph100%29.47 "Hg2 mi
1:50 AM30 °FPassing clouds.2 mph100%29.47 "Hg3 mi
12:50 AM28 °FFog.1 mph100%29.47 "Hg0 mi
11:50 PM
Thu, Feb 11
30 °FIce fog.1 mph100%29.50 "Hg4 mi
10:50 PM32 °FIce fog.No wind93%29.50 "Hg4 mi
9:50 PM30 °FPassing clouds.1 mph100%29.53 "HgN/A
8:50 PM34 °FPassing clouds.1 mph93%29.53 "HgN/A
7:50 PM36 °FHaze.5 mph87%29.53 "Hg5 mi
6:50 PM36 °FPassing clouds.1 mph87%29.53 "HgN/A
5:50 PM37 °FOvercast.6 mph87%29.53 "HgN/A
4:50 PM41 °FSunny.5 mph76%29.53 "Hg10 mi
3:50 PM45 °FPassing clouds.6 mph71%29.56 "HgN/A
2:50 PM45 °FScattered clouds.7 mph71%29.56 "HgN/A
1:50 PM45 °FPartly sunny.8 mph71%29.56 "HgN/A
12:49 PM39 °FScattered clouds.6 mph100%29.56 "HgN/A
11:50 AM37 °FScattered clouds.6 mph81%29.59 "HgN/A
10:50 AM37 °FScattered clouds.6 mph81%29.59 "HgN/A
9:50 AM32 °FScattered clouds.2 mph93%29.59 "HgN/A
8:50 AM30 °FSunny.No wind93%29.59 "Hg10 mi
7:50 AM30 °FSunny.3 mph86%29.56 "Hg10 mi
6:50 AM30 °FClear.3 mph93%29.56 "Hg10 mi
Weather by CustomWeather, © 2016

See weather overviewHow to use our weather pages